EW5919 Weather Reports


Display with metric or nautical units.
time (UTC)temp
F
wind
direction
speed
MPH
gust
MPH
rain 1hr
in
rain 24hr
in
rain mn
in
humidity
%
barometer
mb
20210926214641 78 13 0.0 2.0 0.00 0.00 0.00 57 1017.4
20210926210021 77 355 0.0 1.0 0.00 0.00 0.00 65 1017.3
20210926204512 79 325 0.0 1.0 0.00 0.00 0.00 58 1017.4
20210926201518 79 9 0.0 2.0 0.00 0.00 0.00 57 1017.5
20210926194748 80 348 0.0 3.0 0.00 0.00 0.00 55 1017.7
20210926194546 80 315 0.0 4.0 0.00 0.00 0.00 55 1017.7
20210926193013 79 319 0.0 2.0 0.00 0.00 0.00 55 1017.8
20210926181537 79 307 0.0 3.0 0.00 0.00 0.00 59 1018.7
20210926180055 77 85 0.0 9.0 0.00 0.00 0.00 61 1018.9
20210926173126 77 194 0.0 3.0 0.00 0.00 0.00 60 1019.4
20210926171532 77 326 1.0 5.0 0.00 0.00 0.00 59 1019.6
20210926170047 77 290 0.0 5.0 0.00 0.00 0.00 61 1019.7
20210926170020 77 291 0.0 5.0 0.00 0.00 0.00 61 1019.7
20210926163112 76 277 0.0 2.0 0.00 0.00 0.00 59 1020.1
20210926161546 75 39 0.0 2.0 0.00 0.00 0.00 65 1020.2
20210926161503 75 48 0.0 2.0 0.00 0.00 0.00 65 1020.2
20210926160010 74 253 0.0 1.0 0.00 0.00 0.00 67 1020.4
20210926154511 73 302 0.0 4.0 0.00 0.00 0.00 70 1020.4
20210926153056 73 187 0.0 1.0 0.00 0.00 0.00 72 1020.4
20210926150144 69 322 0.0 1.0 0.00 0.00 0.00 84 1020.3
20210926150053 69 322 0.0 1.0 0.00 0.00 0.00 84 1020.3
20210926143040 64 322 0.0 0.0 0.00 0.00 0.00 94 1020.3
20210926134738 56 322 0.0 0.0 0.00 0.00 0.00 98 1020.1
20210926123024 51 322 0.0 0.0 0.00 0.00 0.00 96 1019.7
20210926121520 51 322 0.0 0.0 0.00 0.00 0.00 96 1019.5
20210926120140 51 322 0.0 0.0 0.00 0.00 0.00 96 1019.3
20210926114551 51 322 0.0 0.0 0.00 0.00 0.00 96 1019.2
20210926113025 51 322 0.0 0.0 0.00 0.00 0.00 96 1019.1
20210926111515 51 322 0.0 0.0 0.00 0.00 0.00 96 1018.9
20210926110024 51 322 0.0 0.0 0.00 0.00 0.00 96 1018.8
20210926101629 51 322 0.0 0.0 0.00 0.00 0.00 96 1018.4
20210926094620 51 322 0.0 0.0 0.00 0.00 0.00 95 1018.2
20210926074507 53 322 0.0 0.0 0.00 0.00 0.00 95 1017.9
20210926070114 53 322 0.0 0.0 0.00 0.00 0.00 94 1018.1
20210926064507 54 322 0.0 0.0 0.00 0.00 0.00 94 1018.2
20210926063029 54 322 0.0 0.0 0.00 0.00 0.00 94 1018.1
20210926061535 54 322 0.0 0.0 0.00 0.00 0.00 94 1018.2
20210926054552 54 322 0.0 0.0 0.00 0.00 0.00 94 1018.1
20210926051533 55 322 0.0 0.0 0.00 0.00 0.00 94 1018.1
20210926044548 55 322 0.0 0.0 0.00 0.00 0.00 93 1018.3
20210926041555 56 322 0.0 0.0 0.00 0.00 0.00 93 1018.3
20210926033145 57 322 0.0 0.0 0.00 0.00 0.00 92 1018.0
20210926030031 58 322 0.0 0.0 0.00 0.00 0.00 91 1017.8
20210926021617 59 322 0.0 0.0 0.00 0.00 0.00 90 1017.3
20210926020029 60 322 0.0 0.0 0.00 0.00 0.00 90 1017.3
20210926014625 60 322 0.0 0.0 0.00 0.00 0.00 89 1017.2
20210926014517 60 322 0.0 0.0 0.00 0.00 0.00 89 1017.2
20210926013044 61 322 0.0 0.0 0.00 0.00 0.00 88 1017.1
20210926011632 62 322 0.0 0.0 0.00 0.00 0.00 87 1017.0
20210926003111 65 322 0.0 0.0 0.00 0.00 0.00 84 1016.6
20210926001637 66 322 0.0 0.0 0.00 0.00 0.00 82 1016.6
20210926000019 67 322 0.0 0.0 0.00 0.00 0.00 81 1016.4
20210925231602 71 322 0.0 0.0 0.00 0.00 0.00 75 1016.4
20210925224545 71 322 0.0 0.0 0.00 0.00 0.00 75 1016.2
20210925223019 73 322 0.0 0.0 0.00 0.00 0.00 70 1016.1